Time,TemperatureF,DewpointF,PressureIn,WindDirection,WindDirectionDegrees,WindSpeedMPH,WindSpeedGustMPH,Humidity,HourlyPrecipIn,Conditions,Clouds,dailyrainin,SoftwareType,DateUTC
2013-12-18 00:09:00,64.4,57.4,30.17,NNW,330,0.0,0.0,78,0.00,,,0.00,Wunderground v.1.15,2013-12-18 05:09:00,
2013-12-18 00:19:00,63.9,57.3,30.16,NNW,330,0.0,0.0,79,0.00,,,0.00,Wunderground v.1.15,2013-12-18 05:19:00,
2013-12-18 00:29:00,63.3,57.0,30.16,NNW,330,0.0,0.0,80,0.00,,,0.00,Wunderground v.1.15,2013-12-18 05:29:00,
2013-12-18 00:39:00,62.8,56.9,30.17,NNW,338,1.0,1.0,81,0.00,,,0.00,Wunderground v.1.15,2013-12-18 05:39:00,
2013-12-18 00:49:00,62.6,57.0,30.16,North,349,1.0,1.0,82,0.00,,,0.00,Wunderground v.1.15,2013-12-18 05:49:00,
2013-12-18 00:59:00,62.4,57.2,30.16,North,349,0.0,0.0,83,0.00,,,0.00,Wunderground v.1.15,2013-12-18 05:59:00,
2013-12-18 01:09:00,62.5,57.3,30.16,NNW,328,1.0,1.0,83,0.00,,,0.00,Wunderground v.1.15,2013-12-18 06:09:00,
2013-12-18 01:19:00,62.1,57.2,30.16,North,349,1.0,1.0,84,0.00,,,0.00,Wunderground v.1.15,2013-12-18 06:19:00,
2013-12-18 01:29:00,62.0,57.1,30.16,NNW,346,1.0,1.0,84,0.00,,,0.00,Wunderground v.1.15,2013-12-18 06:29:00,
2013-12-18 01:40:00,61.8,57.2,30.16,NNW,344,1.0,1.0,85,0.00,,,0.00,Wunderground v.1.15,2013-12-18 06:40:00,
2013-12-18 01:49:00,61.8,57.2,30.16,NW,323,1.0,2.0,85,0.00,,,0.00,Wunderground v.1.15,2013-12-18 06:49:00,
2013-12-18 01:59:00,61.7,57.1,30.16,NNW,332,1.0,1.0,85,0.00,,,0.00,Wunderground v.1.15,2013-12-18 06:59:00,
2013-12-18 02:09:00,61.6,57.4,30.16,NNW,335,1.0,2.0,86,0.00,,,0.00,Wunderground v.1.15,2013-12-18 07:09:00,
2013-12-18 02:19:00,61.6,57.4,30.16,NNW,329,2.0,2.0,86,0.00,,,0.00,Wunderground v.1.15,2013-12-18 07:19:00,
2013-12-18 02:29:00,61.7,57.5,30.16,NNW,336,1.0,1.0,86,0.00,,,0.00,Wunderground v.1.15,2013-12-18 07:29:00,
2013-12-18 02:39:00,61.7,57.5,30.16,NNW,329,1.0,1.0,86,0.00,,,0.00,Wunderground v.1.15,2013-12-18 07:39:00,
2013-12-18 02:49:00,61.6,57.4,30.15,NW,315,1.0,1.0,86,0.00,,,0.00,Wunderground v.1.15,2013-12-18 07:49:00,
2013-12-18 03:00:00,61.6,57.7,30.16,NW,326,2.0,3.0,87,0.00,,,0.00,Wunderground v.1.15,2013-12-18 08:00:00,
2013-12-18 03:09:00,61.7,57.8,30.16,NW,305,2.0,2.0,87,0.00,,,0.00,Wunderground v.1.15,2013-12-18 08:09:00,
2013-12-18 03:19:00,61.7,57.8,30.16,NW,319,2.0,2.0,87,0.00,,,0.00,Wunderground v.1.15,2013-12-18 08:19:00,
2013-12-18 03:29:00,61.7,57.8,30.16,NW,315,2.0,3.0,87,0.00,,,0.00,Wunderground v.1.15,2013-12-18 08:29:00,
2013-12-18 03:39:00,61.7,57.8,30.16,NNE,16,2.0,2.0,87,0.00,,,0.00,Wunderground v.1.15,2013-12-18 08:39:00,
2013-12-18 03:49:00,61.6,57.7,30.16,NW,316,2.0,2.0,87,0.00,,,0.00,Wunderground v.1.15,2013-12-18 08:49:00,
2013-12-18 03:59:00,61.6,57.7,30.16,NW,315,2.0,2.0,87,0.00,,,0.00,Wunderground v.1.15,2013-12-18 08:59:00,
2013-12-18 04:09:00,61.6,57.7,30.16,NW,305,2.0,2.0,87,0.00,,,0.00,Wunderground v.1.15,2013-12-18 09:09:00,
2013-12-18 04:19:00,61.5,57.6,30.16,NW,311,2.0,2.0,87,0.00,,,0.00,Wunderground v.1.15,2013-12-18 09:19:00,
2013-12-18 04:29:00,61.4,57.8,30.17,NW,321,2.0,2.0,88,0.00,,,0.00,Wunderground v.1.15,2013-12-18 09:29:00,
2013-12-18 04:39:00,61.4,58.1,30.17,NW,318,2.0,3.0,89,0.00,,,0.00,Wunderground v.1.15,2013-12-18 09:39:00,
2013-12-18 04:49:00,61.5,58.2,30.17,NNW,332,2.0,3.0,89,0.00,,,0.00,Wunderground v.1.15,2013-12-18 09:49:00,
2013-12-18 04:59:00,61.6,58.3,30.17,NNW,336,3.0,3.0,89,0.00,,,0.00,Wunderground v.1.15,2013-12-18 09:59:00,
2013-12-18 05:09:00,61.6,58.3,30.17,NNW,330,3.0,4.0,89,0.00,,,0.00,Wunderground v.1.15,2013-12-18 10:09:00,
2013-12-18 05:19:00,61.7,58.4,30.17,North,351,3.0,3.0,89,0.00,,,0.00,Wunderground v.1.15,2013-12-18 10:19:00,
2013-12-18 05:29:00,61.7,58.4,30.18,NNW,329,3.0,3.0,89,0.00,,,0.00,Wunderground v.1.15,2013-12-18 10:29:00,
2013-12-18 05:39:00,61.7,58.1,30.18,NNW,345,3.0,5.0,88,0.00,,,0.00,Wunderground v.1.15,2013-12-18 10:39:00,
2013-12-18 05:49:00,61.8,58.2,30.18,NW,314,3.0,3.0,88,0.00,,,0.00,Wunderground v.1.15,2013-12-18 10:49:00,
2013-12-18 06:00:00,61.7,58.1,30.19,NNW,329,3.0,3.0,88,0.00,,,0.00,Wunderground v.1.15,2013-12-18 11:00:00,
2013-12-18 06:09:00,61.8,58.2,30.19,North,11,3.0,3.0,88,0.00,,,0.00,Wunderground v.1.15,2013-12-18 11:09:00,
2013-12-18 06:19:00,61.7,58.1,30.19,NW,309,3.0,5.0,88,0.00,,,0.00,Wunderground v.1.15,2013-12-18 11:19:00,
2013-12-18 06:29:00,61.7,58.1,30.19,NNW,332,4.0,4.0,88,0.00,,,0.00,Wunderground v.1.15,2013-12-18 11:29:00,
2013-12-18 06:39:00,61.6,58.0,30.20,NNW,330,3.0,4.0,88,0.00,,,0.00,Wunderground v.1.15,2013-12-18 11:39:00,
2013-12-18 06:49:00,61.5,57.9,30.20,NNW,338,3.0,6.0,88,0.00,,,0.00,Wunderground v.1.15,2013-12-18 11:49:00,
2013-12-18 06:59:00,61.6,58.0,30.20,NNW,330,4.0,4.0,88,0.00,,,0.00,Wunderground v.1.15,2013-12-18 11:59:00,
2013-12-18 07:09:00,61.6,57.7,30.21,North,358,4.0,5.0,87,0.00,,,0.00,Wunderground v.1.15,2013-12-18 12:09:00,
2013-12-18 07:19:00,61.5,57.6,30.21,NNE,32,3.0,4.0,87,0.00,,,0.00,Wunderground v.1.15,2013-12-18 12:19:00,
2013-12-18 07:29:00,61.5,57.6,30.21,NNW,338,4.0,4.0,87,0.00,,,0.00,Wunderground v.1.15,2013-12-18 12:29:00,
2013-12-18 07:40:00,61.8,57.9,30.22,NW,318,4.0,4.0,87,0.00,,,0.00,Wunderground v.1.15,2013-12-18 12:40:00,
2013-12-18 07:49:00,62.3,57.7,30.22,NNE,19,4.0,4.0,85,0.00,,,0.00,Wunderground v.1.15,2013-12-18 12:49:00,
2013-12-18 07:59:00,62.7,57.8,30.23,NNW,340,4.0,4.0,84,0.00,,,0.00,Wunderground v.1.15,2013-12-18 12:59:00,
2013-12-18 08:09:00,63.3,58.0,30.23,NNE,28,5.0,5.0,83,0.00,,,0.00,Wunderground v.1.15,2013-12-18 13:09:00,
2013-12-18 08:19:00,63.8,58.2,30.23,NW,316,4.0,5.0,82,0.00,,,0.00,Wunderground v.1.15,2013-12-18 13:19:00,
2013-12-18 08:29:00,64.4,58.4,30.23,NW,326,4.0,4.0,81,0.00,,,0.00,Wunderground v.1.15,2013-12-18 13:29:00,
2013-12-18 08:39:00,65.0,58.7,30.23,NNW,335,4.0,4.0,80,0.00,,,0.00,Wunderground v.1.15,2013-12-18 13:39:00,
2013-12-18 08:49:00,65.5,58.1,30.24,NNW,329,5.0,5.0,77,0.00,,,0.00,Wunderground v.1.15,2013-12-18 13:49:00,
2013-12-18 08:59:00,66.1,57.9,30.24,NW,311,5.0,8.0,75,0.00,,,0.00,Wunderground v.1.15,2013-12-18 13:59:00,
2013-12-18 09:09:00,66.7,57.8,30.24,NW,323,5.0,6.0,73,0.00,,,0.00,Wunderground v.1.15,2013-12-18 14:09:00,
2013-12-18 09:19:00,67.1,57.4,30.24,NNE,18,6.0,6.0,71,0.00,,,0.00,Wunderground v.1.15,2013-12-18 14:19:00,
2013-12-18 09:29:00,67.6,57.9,30.25,North,352,6.0,10.0,71,0.00,,,0.00,Wunderground v.1.15,2013-12-18 14:29:00,
2013-12-18 09:40:00,68.0,57.0,30.25,NW,315,8.0,9.0,68,0.00,,,0.00,Wunderground v.1.15,2013-12-18 14:40:00,
2013-12-18 09:49:00,68.6,56.8,30.25,NNW,330,8.0,8.0,66,0.00,,,0.00,Wunderground v.1.15,2013-12-18 14:49:00,
2013-12-18 09:59:00,69.4,57.1,30.25,NNE,13,7.0,7.0,65,0.00,,,0.00,Wunderground v.1.15,2013-12-18 14:59:00,
2013-12-18 10:09:00,69.5,56.3,30.25,NE,54,8.0,8.0,63,0.00,,,0.00,Wunderground v.1.15,2013-12-18 15:09:00,
2013-12-18 10:19:00,70.1,56.5,30.25,NNW,334,7.0,7.0,62,0.00,,,0.00,Wunderground v.1.15,2013-12-18 15:19:00,
2013-12-18 10:29:00,70.1,56.5,30.25,North,360,8.0,8.0,62,0.00,,,0.00,Wunderground v.1.15,2013-12-18 15:29:00,
2013-12-18 10:39:00,70.3,56.7,30.25,NNW,340,8.0,8.0,62,0.00,,,0.00,Wunderground v.1.15,2013-12-18 15:39:00,
2013-12-18 10:49:00,70.9,57.2,30.25,NW,319,7.0,7.0,62,0.00,,,0.00,Wunderground v.1.15,2013-12-18 15:49:00,
2013-12-18 10:59:00,71.2,57.5,30.25,NNW,329,7.0,9.0,62,0.00,,,0.00,Wunderground v.1.15,2013-12-18 15:59:00,
2013-12-18 11:09:00,71.9,58.6,30.24,NNE,15,7.0,7.0,63,0.00,,,0.00,Wunderground v.1.15,2013-12-18 16:09:00,
2013-12-18 11:19:00,72.2,58.0,30.24,NNE,12,7.0,9.0,61,0.00,,,0.00,Wunderground v.1.15,2013-12-18 16:19:00,
2013-12-18 11:29:00,72.5,58.3,30.23,NNW,329,7.0,9.0,61,0.00,,,0.00,Wunderground v.1.15,2013-12-18 16:29:00,
2013-12-18 11:39:00,73.1,58.4,30.23,NW,323,7.0,7.0,60,0.00,,,0.00,Wunderground v.1.15,2013-12-18 16:39:00,
2013-12-18 11:49:00,73.3,58.1,30.23,NNW,333,8.0,8.0,59,0.00,,,0.00,Wunderground v.1.15,2013-12-18 16:49:00,
2013-12-18 12:00:00,73.7,57.5,30.22,WNW,300,7.0,7.0,57,0.00,,,0.00,Wunderground v.1.15,2013-12-18 17:00:00,
2013-12-18 12:09:00,73.4,57.2,30.22,NNE,19,9.0,10.0,57,0.00,,,0.00,Wunderground v.1.15,2013-12-18 17:09:00,
2013-12-18 12:19:00,73.6,56.9,30.21,NNE,28,8.0,8.0,56,0.00,,,0.00,Wunderground v.1.15,2013-12-18 17:19:00,
2013-12-18 12:29:00,73.9,57.2,30.21,NNE,16,7.0,11.0,56,0.00,,,0.00,Wunderground v.1.15,2013-12-18 17:29:00,
2013-12-18 12:39:00,74.2,57.5,30.21,North,1,7.0,11.0,56,0.00,,,0.00,Wunderground v.1.15,2013-12-18 17:39:00,
2013-12-18 12:49:00,74.2,56.5,30.20,NNW,330,7.0,7.0,54,0.00,,,0.00,Wunderground v.1.15,2013-12-18 17:49:00,
2013-12-18 12:59:00,74.7,56.9,30.19,NNW,338,7.0,7.0,54,0.00,,,0.00,Wunderground v.1.15,2013-12-18 17:59:00,
2013-12-18 13:09:00,74.9,56.6,30.19,NE,38,8.0,8.0,53,0.00,,,0.00,Wunderground v.1.15,2013-12-18 18:09:00,
2013-12-18 13:19:00,74.6,56.3,30.19,North,358,7.0,11.0,53,0.00,,,0.00,Wunderground v.1.15,2013-12-18 18:19:00,
2013-12-18 13:29:00,74.9,57.6,30.18,ENE,60,7.0,7.0,55,0.00,,,0.00,Wunderground v.1.15,2013-12-18 18:29:00,
2013-12-18 13:39:00,75.1,57.8,30.18,NNE,26,7.0,11.0,55,0.00,,,0.00,Wunderground v.1.15,2013-12-18 18:39:00,
2013-12-18 13:49:00,75.0,57.7,30.18,ENE,60,7.0,12.0,55,0.00,,,0.00,Wunderground v.1.15,2013-12-18 18:49:00,
2013-12-18 13:59:00,74.6,58.4,30.18,NW,320,8.0,8.0,57,0.00,,,0.00,Wunderground v.1.15,2013-12-18 18:59:00,
2013-12-18 15:00:00,74.1,58.9,30.17,NNW,329,8.0,8.0,59,0.00,,,0.00,Wunderground v.1.15,2013-12-18 20:00:00,
2013-12-18 15:10:00,74.0,58.8,30.17,ENE,63,9.0,9.0,59,0.00,,,0.00,Wunderground v.1.15,2013-12-18 20:10:00,
2013-12-18 15:20:00,73.6,58.4,30.17,North,354,10.0,10.0,59,0.00,,,0.00,Wunderground v.1.15,2013-12-18 20:20:00,
2013-12-18 15:30:00,73.5,58.3,30.17,North,4,9.0,9.0,59,0.00,,,0.00,Wunderground v.1.15,2013-12-18 20:30:00,
2013-12-18 15:40:00,73.5,58.3,30.17,NE,44,9.0,9.0,59,0.00,,,0.00,Wunderground v.1.15,2013-12-18 20:40:00,
2013-12-18 15:50:00,73.2,58.0,30.18,NNW,334,9.0,9.0,59,0.00,,,0.00,Wunderground v.1.15,2013-12-18 20:50:00,
2013-12-18 16:00:00,73.2,58.5,30.18,NE,34,10.0,10.0,60,0.00,,,0.00,Wunderground v.1.15,2013-12-18 21:00:00,
2013-12-18 16:10:00,73.2,58.5,30.18,NNE,23,8.0,11.0,60,0.00,,,0.00,Wunderground v.1.15,2013-12-18 21:10:00,
2013-12-18 16:20:00,72.8,58.1,30.18,NE,56,10.0,12.0,60,0.00,,,0.00,Wunderground v.1.15,2013-12-18 21:20:00,
2013-12-18 16:30:00,72.7,58.0,30.18,NNW,329,7.0,7.0,60,0.00,,,0.00,Wunderground v.1.15,2013-12-18 21:30:00,
2013-12-18 16:40:00,72.4,58.2,30.18,NNE,15,7.0,7.0,61,0.00,,,0.00,Wunderground v.1.15,2013-12-18 21:40:00,
2013-12-18 16:50:00,72.0,57.8,30.18,NW,326,8.0,8.0,61,0.00,,,0.00,Wunderground v.1.15,2013-12-18 21:50:00,
2013-12-18 17:00:00,71.8,58.1,30.18,NNE,24,6.0,8.0,62,0.00,,,0.00,Wunderground v.1.15,2013-12-18 22:00:00,
2013-12-18 17:10:00,71.4,57.7,30.19,North,352,9.0,13.0,62,0.00,,,0.00,Wunderground v.1.15,2013-12-18 22:10:00,
2013-12-18 17:20:00,71.0,57.8,30.18,NNE,16,9.0,9.0,63,0.00,,,0.00,Wunderground v.1.15,2013-12-18 22:20:00,
2013-12-18 17:30:00,70.5,57.7,30.19,ENE,63,7.0,7.0,64,0.00,,,0.00,Wunderground v.1.15,2013-12-18 22:30:00,
2013-12-18 17:40:00,70.1,57.8,30.19,North,354,6.0,6.0,65,0.00,,,0.00,Wunderground v.1.15,2013-12-18 22:40:00,
2013-12-18 17:50:00,69.8,57.5,30.19,North,4,6.0,6.0,65,0.00,,,0.00,Wunderground v.1.15,2013-12-18 22:50:00,
2013-12-18 18:00:00,69.4,57.5,30.19,NNW,340,5.0,5.0,66,0.00,,,0.00,Wunderground v.1.15,2013-12-18 23:00:00,
2013-12-18 18:10:00,68.9,57.1,30.20,NNW,338,5.0,7.0,66,0.00,,,0.00,Wunderground v.1.15,2013-12-18 23:10:00,
2013-12-18 18:20:00,68.5,57.1,30.20,North,349,5.0,8.0,67,0.00,,,0.00,Wunderground v.1.15,2013-12-18 23:20:00,
2013-12-18 18:30:00,68.3,56.9,30.20,NW,321,5.0,5.0,67,0.00,,,0.00,Wunderground v.1.15,2013-12-18 23:30:00,
2013-12-18 18:40:00,67.9,56.5,30.20,NNW,336,4.0,4.0,67,0.00,,,0.00,Wunderground v.1.15,2013-12-18 23:40:00,
2013-12-18 18:50:00,67.6,56.2,30.20,North,358,5.0,5.0,67,0.00,,,0.00,Wunderground v.1.15,2013-12-18 23:50:00,
2013-12-18 19:00:00,67.3,56.0,30.21,NNW,342,4.0,5.0,67,0.00,,,0.00,Wunderground v.1.15,2013-12-19 00:00:00,
2013-12-18 19:10:00,66.9,56.0,30.21,NW,316,4.0,4.0,68,0.00,,,0.00,Wunderground v.1.15,2013-12-19 00:10:00,
2013-12-18 19:20:00,66.6,55.7,30.21,NNW,347,3.0,5.0,68,0.00,,,0.00,Wunderground v.1.15,2013-12-19 00:20:00,
2013-12-18 19:30:00,66.4,55.9,30.21,East,89,4.0,4.0,69,0.00,,,0.00,Wunderground v.1.15,2013-12-19 00:30:00,
2013-12-18 19:40:00,66.1,55.6,30.21,NNW,338,4.0,5.0,69,0.00,,,0.00,Wunderground v.1.15,2013-12-19 00:40:00,
2013-12-18 19:50:00,66.0,55.5,30.22,NNE,23,4.0,6.0,69,0.00,,,0.00,Wunderground v.1.15,2013-12-19 00:50:00,
2013-12-18 20:00:00,65.8,55.7,30.22,NNW,338,5.0,5.0,70,0.00,,,0.00,Wunderground v.1.15,2013-12-19 01:00:00,
2013-12-18 20:10:00,65.5,55.8,30.22,North,352,4.0,5.0,71,0.00,,,0.00,Wunderground v.1.15,2013-12-19 01:10:00,
2013-12-18 20:20:00,65.3,56.0,30.23,NNE,29,4.0,4.0,72,0.00,,,0.00,Wunderground v.1.15,2013-12-19 01:20:00,
2013-12-18 20:30:00,65.1,56.2,30.23,NW,311,4.0,4.0,73,0.00,,,0.00,Wunderground v.1.15,2013-12-19 01:30:00,
2013-12-18 20:40:00,65.0,56.1,30.23,NW,326,3.0,3.0,73,0.00,,,0.00,Wunderground v.1.15,2013-12-19 01:40:00,
2013-12-18 20:50:00,64.7,56.2,30.23,North,1,2.0,3.0,74,0.00,,,0.00,Wunderground v.1.15,2013-12-19 01:50:00,
2013-12-18 21:00:00,64.6,56.5,30.23,NNW,338,2.0,3.0,75,0.00,,,0.00,Wunderground v.1.15,2013-12-19 02:00:00,
2013-12-18 21:10:00,64.5,56.4,30.23,NNW,330,3.0,5.0,75,0.00,,,0.00,Wunderground v.1.15,2013-12-19 02:10:00,
2013-12-18 21:20:00,64.4,56.7,30.23,NW,326,3.0,3.0,76,0.00,,,0.00,Wunderground v.1.15,2013-12-19 02:20:00,
2013-12-18 21:30:00,64.3,56.6,30.24,NNE,13,2.0,2.0,76,0.00,,,0.00,Wunderground v.1.15,2013-12-19 02:30:00,
2013-12-18 21:40:00,64.1,56.4,30.24,NNW,347,2.0,2.0,76,0.00,,,0.00,Wunderground v.1.15,2013-12-19 02:40:00,
2013-12-18 21:50:00,64.1,56.4,30.24,NNW,336,2.0,2.0,76,0.00,,,0.00,Wunderground v.1.15,2013-12-19 02:50:00,
2013-12-18 22:00:00,64.1,56.4,30.24,NNW,338,2.0,2.0,76,0.00,,,0.00,Wunderground v.1.15,2013-12-19 03:00:00,
2013-12-18 22:10:00,63.9,56.2,30.24,North,359,2.0,2.0,76,0.00,,,0.00,Wunderground v.1.15,2013-12-19 03:10:00,
2013-12-18 22:20:00,63.7,56.4,30.24,NW,326,1.0,2.0,77,0.00,,,0.00,Wunderground v.1.15,2013-12-19 03:20:00,
2013-12-18 22:30:00,63.5,56.2,30.24,NW,320,2.0,2.0,77,0.00,,,0.00,Wunderground v.1.15,2013-12-19 03:30:00,
2013-12-18 22:40:00,63.3,56.0,30.24,North,8,1.0,1.0,77,0.00,,,0.00,Wunderground v.1.15,2013-12-19 03:40:00,
2013-12-18 22:50:00,63.2,56.2,30.24,NW,307,2.0,2.0,78,0.00,,,0.00,Wunderground v.1.15,2013-12-19 03:50:00,
2013-12-18 23:00:00,63.1,56.1,30.24,NNW,344,2.0,3.0,78,0.00,,,0.00,Wunderground v.1.15,2013-12-19 04:00:00,
2013-12-18 23:10:00,63.0,56.4,30.24,NNW,338,1.0,1.0,79,0.00,,,0.00,Wunderground v.1.15,2013-12-19 04:10:00,
2013-12-18 23:20:00,62.8,56.2,30.24,NW,319,2.0,3.0,79,0.00,,,0.00,Wunderground v.1.15,2013-12-19 04:20:00,
2013-12-18 23:30:00,62.5,56.2,30.23,NW,312,2.0,2.0,80,0.00,,,0.00,Wunderground v.1.15,2013-12-19 04:30:00,
2013-12-18 23:40:00,62.6,56.7,30.24,WNW,302,1.0,1.0,81,0.00,,,0.00,Wunderground v.1.15,2013-12-19 04:40:00,
2013-12-18 23:50:00,62.6,56.7,30.23,NW,311,1.0,2.0,81,0.00,,,0.00,Wunderground v.1.15,2013-12-19 04:50:00,